This is the latest recevied weather packets stored in our database for station/object OK1ZDJ-13. If no packets are shown the sender has not sent any weather packets the latest 10 day(s).
| Time | Temp. | Humidity | Pressure | Rain* | Wind** | Luminosity | Snow |
|---|---|---|---|---|---|---|---|
| 1777504054 | -0.56° C | 59% | 1032.6 hPa | - | - | - | - |
| 1777502854 | 0° C | 62% | 1032.6 hPa | - | - | - | - |
| 1777502254 | 0° C | 61% | 1032.6 hPa | - | - | - | - |
| 1777501654 | 0° C | 60% | 1032.4 hPa | - | - | - | - |
| 1777501054 | 0° C | 59% | 1032.3 hPa | - | - | - | - |
| 1777500454 | 0.56° C | 57% | 1032.2 hPa | - | - | - | - |
| 1777499854 | 0.56° C | 54% | 1032.2 hPa | - | - | - | - |
| 1777499254 | 1.11° C | 55% | 1032.1 hPa | - | - | - | - |
| 1777498659 | 1.11° C | 56% | 1032.1 hPa | - | - | - | - |
| 1777498053 | 1.11° C | 50% | 1032.1 hPa | - | - | - | - |
| 1777497453 | 1.67° C | 50% | 1031.9 hPa | - | - | - | - |
| 1777496853 | 2.22° C | 50% | 1031.8 hPa | - | - | - | - |
| 1777496253 | 2.22° C | 47% | 1031.9 hPa | - | - | - | - |
| 1777495653 | 2.78° C | 46% | 1031.7 hPa | - | - | - | - |
| 1777495053 | 3.33° C | 44% | 1031.6 hPa | - | - | - | - |
| 1777494453 | 3.33° C | 43% | 1031.5 hPa | - | - | - | - |
| 1777493853 | 3.89° C | 42% | 1031.5 hPa | - | - | - | - |
| 1777493253 | 4.44° C | 38% | 1031.5 hPa | - | - | - | - |
| 1777492653 | 5.56° C | 36% | 1031.5 hPa | - | - | - | - |
| 1777492053 | 5.56° C | 34% | 1031.3 hPa | - | - | - | - |
| 1777491454 | 6.11° C | 34% | 1031.2 hPa | - | - | - | - |
| 1777490853 | 6.67° C | 32% | 1031 hPa | - | - | - | - |
| 1777489653 | 7.22° C | 29% | 1030.8 hPa | - | - | - | - |
| 1777489053 | 7.22° C | 29% | 1030.8 hPa | - | - | - | - |
| 1777488453 | 7.78° C | 29% | 1030.5 hPa | - | - | - | - |
* Rain since midnight (hover to see other rain measurements)
** Current wind speed in m/s (hover to see current wind gust speed)